This is the latest recevied weather packets stored in our database for station/object p43g-13. If no packets are shown the sender has not sent any weather packets the latest 10 day(s).
| Time | Temp. | Humidity | Pressure | Rain* | Wind** | Luminosity | Snow |
|---|---|---|---|---|---|---|---|
| 1787690746 | 31.11° C | 76% | 1010.1 hPa | 0 mm | - | 160 W/m² | - |
| 1787690447 | 31.11° C | 76% | 1010.2 hPa | 0 mm | - | 345 W/m² | - |
| 1787690146 | 31.11° C | 75% | 1010.2 hPa | 0 mm | - | 371 W/m² | - |
| 1787689847 | 31.11° C | 76% | 1010.2 hPa | 0 mm | - | 345 W/m² | - |
| 1787689545 | 31.11° C | 74% | 1010.1 hPa | 0 mm | - | 423 W/m² | - |
| 1787689246 | 31.67° C | 74% | 1010 hPa | 0 mm | - | 432 W/m² | - |
| 1787688947 | 31.67° C | 73% | 1010.4 hPa | 0 mm | - | 447 W/m² | - |
| 1787688646 | 31.67° C | 73% | 1010.2 hPa | 0 mm | - | 436 W/m² | - |
| 1787688346 | 31.11° C | 74% | 1010.5 hPa | 0 mm | - | 492 W/m² | - |
| 1787688046 | 31.67° C | 74% | 1010.2 hPa | 0 mm | - | 509 W/m² | - |
| 1787687746 | 31.67° C | 73% | 1010.3 hPa | 0 mm | - | 495 W/m² | - |
| 1787687446 | 31.67° C | 72% | 1010.4 hPa | 0 mm | - | 552 W/m² | - |
| 1787687146 | 31.67° C | 73% | 1010.3 hPa | 0 mm | - | 178 W/m² | - |
| 1787686847 | 31.67° C | 74% | 1010.1 hPa | 0 mm | - | 478 W/m² | - |
| 1787686546 | 31.67° C | 73% | 1010.3 hPa | 0 mm | - | 656 W/m² | - |
| 1787686246 | 31.11° C | 72% | 1010.2 hPa | 0 mm | - | 657 W/m² | - |
| 1787685946 | 31.67° C | 73% | 1010.4 hPa | 0 mm | - | 214 W/m² | - |
| 1787685646 | 31.67° C | 73% | 1010.6 hPa | 0 mm | - | 718 W/m² | - |
| 1787685346 | 31.11° C | 74% | 1010.7 hPa | 0 mm | - | 439 W/m² | - |
| 1787685046 | 31.67° C | 74% | 1010.8 hPa | 0 mm | - | 263 W/m² | - |
| 1787684746 | 31.67° C | 73% | 1010.7 hPa | 0 mm | - | 365 W/m² | - |
| 1787684446 | 31.67° C | 72% | 1010.9 hPa | 0 mm | - | 334 W/m² | - |
| 1787684146 | 31.67° C | 71% | 1010.7 hPa | 0 mm | - | 364 W/m² | - |
| 1787683842 | 31.67° C | 72% | 1010.9 hPa | 0 mm | - | 273 W/m² | - |
| 1787683534 | 31.67° C | 73% | 1011 hPa | 0 mm | - | 861 W/m² | - |
* Rain latest hour (hover to see other rain measurements)
** Current wind speed in m/s (hover to see current wind gust speed)